map of VKO home
Great Circle Mapper logo
VKO - Airport
Location
City:  Moscow, Russian Federation (Russia)
Name:Vnukovo International Airport
ICAO / IATA:UUWW / VKO

Details
Type:Airport (Aerodrome, Airfield)
Use:Public/Civil, International (customs port of entry)
Latitude:5535'30"N (55.591531)
Longitude:3715'41"E (37.261486)
Datum:WGS 1984
Elevation:685 ft (209 m)
Runways:2
Longest:10039 × 197 ft (3060 × 60 m), paved

Time
Time Zone:UTC+3 (DST+4)

Weather
METAR:UUWW 241200Z 34005MPS CAVOK M02/M10 Q1035 01190042 NOSIG
TAF:UUWW 241056Z 2412/2512 36005MPS 9999 SCT015
TEMPO 2422/2506 2000 BR SCT005
BECMG 2502/2504 VRB02MPS

Related Locations
Nearby:
Farthest:CHT: 10743 mi / 17289 km
Waitangi [Tuuta], Chatham Islands, NZ

Find:

   beyond  
but within

Other Information
Maps:
NOTAMs:
Links:
Sources:

  
flag of Russian Federation (Russia)
flag of Moscow
  

Airport Diagram

Airport diagram for VKO

Airport diagram (OBSOLETE) from NGA

Sectional Chart

Flight Planning
at skyvector.com

Satellite Image

Google Maps Satellite View

 

Copyright © 2004-2014 Karl L. Swartz. All rights reserved.
The Great Circle Mapper name and logo are trademarks of the Great Circle Mapper.
All other trademarks mentioned herein belong to their respective owners.
Please see credits for attibutions and further copyright information.

  Follow gcmap on Facebook Follow gcmap on Twitter

hCard Microformat

Geo Microformat